SCP
0 0 0 0 0 0 0 0 0 0 0 0 0 0 0 0 0 0 0 0 0 0 0 0 0 0 0 0 0 0 0 0 0 0 0 0 0 0 0 0 0 0 0
0 0 0 0 0 0 0 0 0 0 0 0 0 0 0 0 0 0 0 0 0 0 0 0 0 0 0 0 0 0 0 0 0 0 0 0 0 0 0 0 0 0 0
0 0 0 0 0 0 0 0 0 0 0 0 0 0 0 0 0 0 0 0 0 0 0 0 0 0 0 0 0 0 0 0 0 0 0 0 0 0 0 0 0 0 0
0 0 0 0 0 0 0 0 0 0 0 0 0 0 0 0 0 0 0 0 0 0 0 0 0 0 0 0 0 0 0 0 0 0 0 0 0 0 0 0 0 0 0
0 0 0 0 0 0 0 0 0 0 0 0 0 0 0 0 0 0 0 0 0 0 0 0 0 0 0 0 0 0 0 0 0 0 0 0 0 0 0 0 0 0 0
0 0 0 0 0 0 0 0 0 0 0 0 0 0 0 0 0 0 0 0 0 0 0 0 0 0 0 0 0 0 0 0 0 0 0 0 0 0 0 0 0 0 0
0 0 0 0 0 0 0 0 0 0 0 0 0 0 0 0 0 0 0 0 0 0 0 0 0 0 0 0 0 0 0 0 0 0 0 0 0 0 0 0 0 0 0
0 0 0 0 0 0 0 0 0 0 0 0 0 0 0 0 0 0 0 0 0 0 0 0 0 0 0 0 0 0 0 0 0 0 0 0 0 0 0 0 0 0 0
0 0 0 0 0 0 0 0 0 0 0 0 0 0 0 0 0 0 0 0 0 0 0 0 0 0 0 0 0 0 0 0 0 0 0 0 0 0 0 0 0 0 0
0 0 0 0 0 0 0 0 0 0 0 0 0 0 0 0 0 0 0 0 0 0 0 0 0 0 0 0 0 0 0 0 0 0 0 0 0 0 0 0 0 0 0
0 0 0 0 0 0 0 0 0 0 0 0 0 0 0 0 0 0 0 0 0 0 0 0 0 0 0 0 0 0 0 0 0 0 0 0 0 0 0 0 0 0 0
0 0 0 0 0 0 0 0 0 0 0 0 0 0 0 0 0 0 0 0 0 0 0 0 0 0 0 0 0 0 0 0 0 0 0 0 0 0 0 0 0 0 0
0 0 0 0 0 0 0 0 0 0 0 0 0 0 0 0 0 0 0 0 0 0 0 0 0 0 0 0 0 0 0 0 0 0 0 0 0 -0 0 0 0 0 0
0 0 0 0 0 0 0 0 0 0 0 0 0 0 0 0 0 0 0 0 0 0 0 0 0 0 0 0 0 0 0 0 0 0 0 0 -0 -0 -0 -0 0 0 0
0 0 0 0 0 0 0 0 0 0 0 0 0 0 0 0 0 0 0 0 0 0 0 0 0 0 0 0 0 0 0 -0 0 0 0 0 -0 0 -0 -0 0 0 0
0 0 0 0 0 0 0 0 0 0 0 0 -0 0 0 0 0 0 0 0 0 0 0 0 0 0 0 0 0 0 0 0 0 0 0 0 -0 -0 -0 -0 0 0 0
0 0 0 0 0 0 0 0 0 0 0 0 0 0 0 0 0 0 0 0 0 0 0 0 0 0 0 0 0 0 0 0 0 0 0 0 0 0 0 0 0 0 0
0 0 0 0 0 0 0 0 0 0 0 0 0 0 0 0 0 0 0 0 0 0 0 0 0 0 0 0 0 0 0 0 0 0 0 0 0 0 0 0 0 0 0
0 0 0 0 0 0 0 0 0 0 0 0 0 0 0 0 0 0 -0 0 0 0 0 0 0 0 0 0 0 0 0 0 0 0 0 0 0 0 0 0 0 0 0
0 0 0 0 0 0 0 0 0 0 0 0 0 0 0 0 0 0 0 0 0 0 0 0 0 0 0 0 0 0 0 0 0 0 0 0 0 0 0 0 0 0 0
0 0 0 0 0 0 0 0 0 0 0 0 0 0 0 0 -0 0 0 0 0 0 0 0 0 0 0 0 0 0 0 0 0 0 0 0 0 0 0 0 0 0 0
0 0 0 0 0 0 0 0 0 -0 -0 0 0 0 0 -0 0 0 0 0 0 0 0 0 0 0 0 0 0 0 0 0 0 0 0 -0 0 0 0 0 0 0 0
-0 0 0 0 0 0 0 0 0 -0 -0 0 0 0 0 0 0 0 0 0 0 0 0 0 0 0 0 0 0 0 0 0 0 0 0 0 0 0 -0 -0 0 0 0
-0 0 0 0 0 0 0 0 0 0 -0 0 0 0 0 0 0 0 0 0 0 0 0 0 0 0 0 0 0 0 0 0 0 0 0 0 0 0 0 0 0 0 0
0 0 0 0 0 0 0 -0 0 0 0 0 0 0 0 0 0 0 0 0 0 0 0 0 0 0 0 0 0 0 0 0 0 0 0 0 0 0 0 0 0 0 0
0 0 0 0 0 0 -0 -0 0 0 0 0 0 0 0 0 0 0 0 0 0 0 0 0 0 0 0 0 0 0 0 0 0 0 0 0 0 0 0 0 0 0 0
Wind_Speed_500mb
32 34 35 36 38 41 45 48 50 50 49 48 47 46 48 53 57 62 63 62 62 58 55 54 53 52 55 50 45 48 54 54 67 84 77 80 76 76 74 68 63 63 66
41 42 41 41 42 42 44 44 46 52 54 55 54 53 52 52 51 57 63 64 65 62 58 56 56 53 55 51 50 55 56 56 60 78 82 80 75 72 74 74 66 65 67
44 46 47 47 49 49 49 48 47 48 48 51 58 61 61 60 61 60 61 64 66 65 61 58 57 54 56 52 52 59 58 58 59 69 83 75 74 75 78 75 79 78 71
43 44 46 47 50 52 54 53 53 52 55 56 54 58 61 63 63 65 66 66 66 66 63 61 58 55 55 51 55 56 56 59 62 67 75 75 76 75 74 82 88 80 81
40 41 43 45 49 52 55 56 56 57 59 60 59 58 59 60 63 65 68 67 66 65 64 62 58 52 51 53 53 53 52 56 61 67 69 71 74 75 77 79 82 84 78
43 45 47 49 51 51 53 55 58 61 62 65 66 65 63 60 58 63 70 66 65 64 64 60 56 52 51 51 50 49 50 51 57 58 62 65 70 72 71 73 74 78 80
49 50 53 55 58 57 59 60 59 60 64 65 68 70 69 64 60 62 66 66 64 63 62 59 56 53 49 49 49 49 50 49 56 52 56 58 67 63 64 67 69 73 73
55 58 56 59 63 63 65 68 68 69 71 72 72 72 73 69 64 65 66 60 65 63 62 57 56 52 46 49 50 48 47 49 51 46 45 53 54 53 51 59 62 63 58
61 64 63 64 68 69 71 73 75 80 82 84 82 79 76 73 67 67 61 56 66 69 61 56 54 52 41 47 49 47 47 51 43 41 41 42 44 45 44 49 43 46 49
71 71 69 69 72 73 77 78 79 82 84 86 92 82 78 75 67 66 55 54 65 71 60 50 51 48 42 45 45 44 48 44 40 39 37 35 37 38 31 32 34 38 38
73 73 72 71 74 76 81 81 81 85 88 86 89 85 74 69 67 64 50 51 66 70 59 49 46 45 42 42 41 40 45 40 35 37 36 33 28 27 22 23 25 28 28
76 73 75 74 74 77 81 84 83 86 88 87 82 78 72 64 59 56 48 49 58 60 55 46 41 42 41 40 38 35 41 31 32 32 31 26 20 17 14 18 19 19 24
75 76 75 76 78 78 83 86 86 85 84 83 68 70 72 62 56 50 42 43 49 57 53 43 41 40 38 37 32 36 31 26 25 28 24 17 12 4 10 10 16 21 27
77 76 76 78 80 83 85 84 86 86 81 76 59 68 69 62 56 49 43 44 46 52 52 46 43 40 36 35 29 32 23 21 19 20 14 10 5 6 9 10 8 12 20
78 78 78 79 84 88 88 87 87 84 73 66 58 66 67 63 53 50 44 42 47 44 47 48 47 41 36 32 30 22 19 15 9 11 7 10 14 17 16 11 8 11 17
78 78 78 79 86 90 92 95 88 78 67 65 61 68 74 64 51 49 43 36 41 41 50 52 47 41 36 30 28 17 16 13 11 13 14 19 21 19 15 10 11 14 23
75 77 78 84 88 88 89 89 92 79 60 51 48 56 58 59 56 53 45 40 37 41 55 49 45 39 34 32 25 19 16 16 19 15 19 20 18 13 7 8 15 17 25
74 77 83 86 83 82 82 83 80 74 63 43 40 45 45 46 50 54 43 39 44 50 55 48 45 39 36 34 24 21 18 17 18 20 20 16 13 10 10 16 17 23 27
77 85 84 79 78 80 79 76 72 65 57 51 46 48 44 43 44 48 48 55 60 60 53 49 43 39 36 35 26 24 22 21 21 19 18 16 16 18 20 19 27 26 23
83 80 74 74 76 76 73 69 62 57 52 51 52 52 46 43 43 57 62 62 65 57 46 47 43 40 38 34 27 27 26 26 25 24 22 21 25 24 22 26 23 19 20
75 75 74 75 75 72 67 62 55 50 45 47 45 46 49 44 46 68 69 69 67 54 48 48 45 42 39 35 30 29 30 29 28 27 27 28 29 31 29 25 23 19 19
71 73 76 76 73 68 66 57 51 49 46 41 50 51 41 39 43 68 66 69 63 51 48 50 47 44 40 34 31 32 32 31 32 31 31 32 30 28 27 25 23 22 23
73 76 74 75 71 65 61 52 49 49 47 41 45 48 40 38 48 56 63 66 58 51 55 54 49 45 42 38 33 30 32 33 31 32 32 31 29 28 27 27 25 26 24
68 68 69 66 61 58 55 50 44 44 46 42 46 46 38 38 48 48 53 58 52 47 59 57 52 49 45 41 37 35 36 38 36 36 30 27 29 32 33 31 28 25 24
66 65 62 59 56 55 53 48 42 39 41 45 46 41 35 37 50 51 48 52 46 47 61 58 54 51 46 43 40 38 38 38 38 37 36 30 28 32 32 30 30 29 25
61 60 58 55 53 50 47 42 37 33 30 36 41 36 35 38 50 53 52 45 44 53 64 59 55 51 49 47 44 42 41 40 39 37 35 33 32 34 33 30 28 26 24
Wind_Direction_500mb
320 317 313 309 303 300 298 294 293 293 294 296 296 296 295 289 283 280 280 280 281 284 287 290 294 296 296 296 291 290 289 285 283 298 300 312 315 318 321 320 319 318 314
315 312 312 310 306 304 304 304 300 294 289 291 293 293 293 291 291 284 280 278 277 278 283 284 290 292 291 290 288 293 292 291 286 295 309 311 313 318 319 320 321 320 316
307 307 307 306 304 305 305 304 303 302 301 295 290 289 289 289 287 285 283 278 275 275 278 280 286 286 286 288 289 294 294 295 294 296 306 311 313 321 323 322 324 323 322
303 304 305 304 304 304 304 303 301 300 299 298 299 295 291 288 287 285 281 277 273 272 274 275 280 282 285 289 289 291 293 295 300 303 305 310 315 324 323 322 321 322 321
303 304 307 310 311 310 307 304 301 298 296 297 299 297 295 291 286 285 284 279 273 270 270 272 277 280 280 286 290 292 293 296 301 301 305 310 314 322 320 318 318 320 320
310 311 312 314 313 314 312 308 303 301 299 298 296 297 296 294 291 286 284 280 273 266 265 269 273 274 278 284 286 289 294 295 297 296 302 306 312 311 313 315 316 321 319
317 318 317 315 313 313 315 314 311 305 300 297 295 293 291 291 291 289 283 276 272 263 262 264 268 269 276 280 282 288 293 300 292 296 300 299 301 309 310 313 313 308 309
316 316 318 314 313 313 314 314 312 309 305 302 296 293 290 287 289 290 285 269 268 263 257 259 265 264 273 276 280 286 293 295 293 294 295 299 300 307 307 303 311 311 315
318 317 316 313 311 313 312 312 311 312 309 305 301 295 289 286 286 290 287 261 262 261 253 254 259 260 271 272 279 288 295 293 294 302 297 298 296 302 306 312 321 324 323
314 312 313 312 309 308 308 308 308 309 307 303 300 296 287 283 282 285 281 255 253 257 252 251 254 257 267 270 276 286 292 294 300 303 300 296 295 300 310 314 329 329 334
312 310 309 307 306 304 304 305 306 308 305 301 297 294 286 279 279 282 274 250 248 254 252 251 250 255 265 269 275 287 291 292 303 303 298 295 292 302 306 325 339 336 346
309 306 305 305 302 300 302 305 306 307 305 302 298 291 287 282 279 283 271 243 243 249 253 254 245 252 261 267 274 284 282 292 300 296 292 295 295 300 327 345 0 22 28
307 304 305 302 300 301 302 304 306 306 303 301 292 283 287 285 281 283 270 244 239 251 258 254 240 247 255 263 272 278 281 291 293 284 286 290 284 300 32 39 62 70 63
305 305 303 300 301 302 302 304 305 304 302 296 282 277 284 282 282 284 271 251 243 243 250 247 238 243 248 257 265 270 279 282 275 275 277 256 231 139 111 97 65 52 42
306 304 301 301 301 302 302 303 303 299 295 284 272 277 283 278 282 286 278 256 245 248 251 240 235 236 242 251 256 261 269 259 250 270 202 149 132 128 126 109 64 48 53
303 300 299 299 300 300 301 303 300 297 292 276 259 267 274 277 275 276 268 260 242 237 240 231 230 232 237 244 247 249 253 222 206 228 163 147 137 124 112 92 79 74 69
297 296 298 299 298 298 300 301 300 299 290 263 253 263 265 267 267 266 256 249 235 232 231 224 227 229 230 236 231 235 229 208 194 208 164 149 134 126 112 93 106 90 88
298 299 296 294 293 295 298 297 296 295 291 277 262 270 272 265 259 249 244 234 231 222 226 221 222 220 222 225 216 221 209 195 184 180 170 162 147 133 134 134 116 106 99
301 297 296 295 295 296 296 293 292 288 277 272 279 278 276 272 259 235 233 220 225 224 220 213 213 214 215 215 203 209 199 188 174 171 169 164 146 137 141 132 123 113 106
296 295 293 294 295 295 294 292 290 283 270 264 274 278 286 281 244 218 225 216 224 224 218 214 212 210 209 206 199 199 193 182 169 163 161 156 145 139 145 134 126 116 115
296 294 294 295 294 295 293 292 285 275 269 273 277 286 285 273 244 220 224 219 221 216 209 209 209 206 203 197 194 192 186 180 167 161 156 148 140 138 139 134 128 123 104
296 296 296 294 295 295 291 288 276 264 256 271 278 285 283 259 239 224 226 225 223 213 204 203 204 202 199 191 191 191 182 178 168 160 154 149 144 144 140 138 133 119 106
299 298 296 296 296 295 290 286 271 258 253 270 280 284 279 243 235 226 227 224 223 211 200 197 197 198 192 184 183 191 181 173 165 158 156 152 147 144 141 141 135 127 116
295 293 293 293 292 290 287 282 266 254 250 264 277 280 269 238 231 227 222 223 221 205 196 192 190 193 191 183 180 186 180 171 162 156 154 153 151 149 145 144 138 133 125
299 296 295 295 292 289 285 275 260 253 253 258 272 275 260 228 225 223 225 218 211 202 192 188 187 187 186 184 181 183 179 171 165 160 154 152 153 149 148 148 142 137 128
300 299 298 295 290 287 280 268 255 252 258 268 273 266 250 226 222 223 222 209 199 195 188 186 186 185 183 181 181 179 177 173 169 164 161 156 157 155 152 152 145 144 139
Wind_Speed_850mb
32 34 35 36 38 41 45 48 50 50 49 48 47 46 48 53 57 62 63 62 62 58 55 54 53 52 55 50 45 48 54 54 67 84 77 80 76 76 74 68 63 63 66
41 42 41 41 42 42 44 44 46 52 54 55 54 53 52 52 51 57 63 64 65 62 58 56 56 53 55 51 50 55 56 56 60 78 82 80 75 72 74 74 66 65 67
44 46 47 47 49 49 49 48 47 48 48 51 58 61 61 60 61 60 61 64 66 65 61 58 57 54 56 52 52 59 58 58 59 69 83 75 74 75 78 75 79 78 71
43 44 46 47 50 52 54 53 53 52 55 56 54 58 61 63 63 65 66 66 66 66 63 61 58 55 55 51 55 56 56 59 62 67 75 75 76 75 74 82 88 80 81
40 41 43 45 49 52 55 56 56 57 59 60 59 58 59 60 63 65 68 67 66 65 64 62 58 52 51 53 53 53 52 56 61 67 69 71 74 75 77 79 82 84 78
43 45 47 49 51 51 53 55 58 61 62 65 66 65 63 60 58 63 70 66 65 64 64 60 56 52 51 51 50 49 50 51 57 58 62 65 70 72 71 73 74 78 80
49 50 53 55 58 57 59 60 59 60 64 65 68 70 69 64 60 62 66 66 64 63 62 59 56 53 49 49 49 49 50 49 56 52 56 58 67 63 64 67 69 73 73
55 58 56 59 63 63 65 68 68 69 71 72 72 72 73 69 64 65 66 60 65 63 62 57 56 52 46 49 50 48 47 49 51 46 45 53 54 53 51 59 62 63 58
61 64 63 64 68 69 71 73 75 80 82 84 82 79 76 73 67 67 61 56 66 69 61 56 54 52 41 47 49 47 47 51 43 41 41 42 44 45 44 49 43 46 49
71 71 69 69 72 73 77 78 79 82 84 86 92 82 78 75 67 66 55 54 65 71 60 50 51 48 42 45 45 44 48 44 40 39 37 35 37 38 31 32 34 38 38
73 73 72 71 74 76 81 81 81 85 88 86 89 85 74 69 67 64 50 51 66 70 59 49 46 45 42 42 41 40 45 40 35 37 36 33 28 27 22 23 25 28 28
76 73 75 74 74 77 81 84 83 86 88 87 82 78 72 64 59 56 48 49 58 60 55 46 41 42 41 40 38 35 41 31 32 32 31 26 20 17 14 18 19 19 24
75 76 75 76 78 78 83 86 86 85 84 83 68 70 72 62 56 50 42 43 49 57 53 43 41 40 38 37 32 36 31 26 25 28 24 17 12 4 10 10 16 21 27
77 76 76 78 80 83 85 84 86 86 81 76 59 68 69 62 56 49 43 44 46 52 52 46 43 40 36 35 29 32 23 21 19 20 14 10 5 6 9 10 8 12 20
78 78 78 79 84 88 88 87 87 84 73 66 58 66 67 63 53 50 44 42 47 44 47 48 47 41 36 32 30 22 19 15 9 11 7 10 14 17 16 11 8 11 17
78 78 78 79 86 90 92 95 88 78 67 65 61 68 74 64 51 49 43 36 41 41 50 52 47 41 36 30 28 17 16 13 11 13 14 19 21 19 15 10 11 14 23
75 77 78 84 88 88 89 89 92 79 60 51 48 56 58 59 56 53 45 40 37 41 55 49 45 39 34 32 25 19 16 16 19 15 19 20 18 13 7 8 15 17 25
74 77 83 86 83 82 82 83 80 74 63 43 40 45 45 46 50 54 43 39 44 50 55 48 45 39 36 34 24 21 18 17 18 20 20 16 13 10 10 16 17 23 27
77 85 84 79 78 80 79 76 72 65 57 51 46 48 44 43 44 48 48 55 60 60 53 49 43 39 36 35 26 24 22 21 21 19 18 16 16 18 20 19 27 26 23
83 80 74 74 76 76 73 69 62 57 52 51 52 52 46 43 43 57 62 62 65 57 46 47 43 40 38 34 27 27 26 26 25 24 22 21 25 24 22 26 23 19 20
75 75 74 75 75 72 67 62 55 50 45 47 45 46 49 44 46 68 69 69 67 54 48 48 45 42 39 35 30 29 30 29 28 27 27 28 29 31 29 25 23 19 19
71 73 76 76 73 68 66 57 51 49 46 41 50 51 41 39 43 68 66 69 63 51 48 50 47 44 40 34 31 32 32 31 32 31 31 32 30 28 27 25 23 22 23
73 76 74 75 71 65 61 52 49 49 47 41 45 48 40 38 48 56 63 66 58 51 55 54 49 45 42 38 33 30 32 33 31 32 32 31 29 28 27 27 25 26 24
68 68 69 66 61 58 55 50 44 44 46 42 46 46 38 38 48 48 53 58 52 47 59 57 52 49 45 41 37 35 36 38 36 36 30 27 29 32 33 31 28 25 24
66 65 62 59 56 55 53 48 42 39 41 45 46 41 35 37 50 51 48 52 46 47 61 58 54 51 46 43 40 38 38 38 38 37 36 30 28 32 32 30 30 29 25
61 60 58 55 53 50 47 42 37 33 30 36 41 36 35 38 50 53 52 45 44 53 64 59 55 51 49 47 44 42 41 40 39 37 35 33 32 34 33 30 28 26 24
Wind_Direction_850mb
320 317 313 309 303 300 298 294 293 293 294 296 296 296 295 289 283 280 280 280 281 284 287 290 294 296 296 296 291 290 289 285 283 298 300 312 315 318 321 320 319 318 314
315 312 312 310 306 304 304 304 300 294 289 291 293 293 293 291 291 284 280 278 277 278 283 284 290 292 291 290 288 293 292 291 286 295 309 311 313 318 319 320 321 320 316
307 307 307 306 304 305 305 304 303 302 301 295 290 289 289 289 287 285 283 278 275 275 278 280 286 286 286 288 289 294 294 295 294 296 306 311 313 321 323 322 324 323 322
303 304 305 304 304 304 304 303 301 300 299 298 299 295 291 288 287 285 281 277 273 272 274 275 280 282 285 289 289 291 293 295 300 303 305 310 315 324 323 322 321 322 321
303 304 307 310 311 310 307 304 301 298 296 297 299 297 295 291 286 285 284 279 273 270 270 272 277 280 280 286 290 292 293 296 301 301 305 310 314 322 320 318 318 320 320
310 311 312 314 313 314 312 308 303 301 299 298 296 297 296 294 291 286 284 280 273 266 265 269 273 274 278 284 286 289 294 295 297 296 302 306 312 311 313 315 316 321 319
317 318 317 315 313 313 315 314 311 305 300 297 295 293 291 291 291 289 283 276 272 263 262 264 268 269 276 280 282 288 293 300 292 296 300 299 301 309 310 313 313 308 309
316 316 318 314 313 313 314 314 312 309 305 302 296 293 290 287 289 290 285 269 268 263 257 259 265 264 273 276 280 286 293 295 293 294 295 299 300 307 307 303 311 311 315
318 317 316 313 311 313 312 312 311 312 309 305 301 295 289 286 286 290 287 261 262 261 253 254 259 260 271 272 279 288 295 293 294 302 297 298 296 302 306 312 321 324 323
314 312 313 312 309 308 308 308 308 309 307 303 300 296 287 283 282 285 281 255 253 257 252 251 254 257 267 270 276 286 292 294 300 303 300 296 295 300 310 314 329 329 334
312 310 309 307 306 304 304 305 306 308 305 301 297 294 286 279 279 282 274 250 248 254 252 251 250 255 265 269 275 287 291 292 303 303 298 295 292 302 306 325 339 336 346
309 306 305 305 302 300 302 305 306 307 305 302 298 291 287 282 279 283 271 243 243 249 253 254 245 252 261 267 274 284 282 292 300 296 292 295 295 300 327 345 0 22 28
307 304 305 302 300 301 302 304 306 306 303 301 292 283 287 285 281 283 270 244 239 251 258 254 240 247 255 263 272 278 281 291 293 284 286 290 284 300 32 39 62 70 63
305 305 303 300 301 302 302 304 305 304 302 296 282 277 284 282 282 284 271 251 243 243 250 247 238 243 248 257 265 270 279 282 275 275 277 256 231 139 111 97 65 52 42
306 304 301 301 301 302 302 303 303 299 295 284 272 277 283 278 282 286 278 256 245 248 251 240 235 236 242 251 256 261 269 259 250 270 202 149 132 128 126 109 64 48 53
303 300 299 299 300 300 301 303 300 297 292 276 259 267 274 277 275 276 268 260 242 237 240 231 230 232 237 244 247 249 253 222 206 228 163 147 137 124 112 92 79 74 69
297 296 298 299 298 298 300 301 300 299 290 263 253 263 265 267 267 266 256 249 235 232 231 224 227 229 230 236 231 235 229 208 194 208 164 149 134 126 112 93 106 90 88
298 299 296 294 293 295 298 297 296 295 291 277 262 270 272 265 259 249 244 234 231 222 226 221 222 220 222 225 216 221 209 195 184 180 170 162 147 133 134 134 116 106 99
301 297 296 295 295 296 296 293 292 288 277 272 279 278 276 272 259 235 233 220 225 224 220 213 213 214 215 215 203 209 199 188 174 171 169 164 146 137 141 132 123 113 106
296 295 293 294 295 295 294 292 290 283 270 264 274 278 286 281 244 218 225 216 224 224 218 214 212 210 209 206 199 199 193 182 169 163 161 156 145 139 145 134 126 116 115
296 294 294 295 294 295 293 292 285 275 269 273 277 286 285 273 244 220 224 219 221 216 209 209 209 206 203 197 194 192 186 180 167 161 156 148 140 138 139 134 128 123 104
296 296 296 294 295 295 291 288 276 264 256 271 278 285 283 259 239 224 226 225 223 213 204 203 204 202 199 191 191 191 182 178 168 160 154 149 144 144 140 138 133 119 106
299 298 296 296 296 295 290 286 271 258 253 270 280 284 279 243 235 226 227 224 223 211 200 197 197 198 192 184 183 191 181 173 165 158 156 152 147 144 141 141 135 127 116
295 293 293 293 292 290 287 282 266 254 250 264 277 280 269 238 231 227 222 223 221 205 196 192 190 193 191 183 180 186 180 171 162 156 154 153 151 149 145 144 138 133 125
299 296 295 295 292 289 285 275 260 253 253 258 272 275 260 228 225 223 225 218 211 202 192 188 187 187 186 184 181 183 179 171 165 160 154 152 153 149 148 148 142 137 128
300 299 298 295 290 287 280 268 255 252 258 268 273 266 250 226 222 223 222 209 199 195 188 186 186 185 183 181 181 179 177 173 169 164 161 156 157 155 152 152 145 144 139